DELTA 1 DEB, 42563

Orbit data source: Space-Track

DELTA 1 DEB, 42563 is space debris in SSO originally from a launch on Sun, 23 Jul 1972 UTC launched from the Air Force Western Test Range (AFWTR). Debris objects in space refer to the collection of defunct objects orbiting the Earth. Examples of debris include non-operational satellites, rocket bodies, and fragments generated from explosions, collisions, or faulty payload assembly.

Loading next visibility...
Identifier
42563, 1972-058JW
Orbit
SSO
Country
Flag of USUS
Related business
Manufacturer
Unknown
Mission
Spacecraft
Bus & Motor
Unknown
Mass
Unknown
Launch date (UTC)
1972-07-23 (53 years ago)
Launch vehicle
Unknown
Launch site
Air Force Western Test Range (AFWTR)
Object type
Payload
Rocket body
Debris
Shape & HBR
Unknown shape, 0.1 m
Radar Cross Section
Small (<0.1 m²)

Expand to show TLE details & history
Last TLE update: 2 days ago

TLE from 2 days ago
0 DELTA 1 DEB
1 42563U 72058JW  25339.59677824  .00001049  00000-0  91185-3 0  9993
2 42563  98.8140 108.1309 0248817 215.0803 143.3742 13.74941601597105
Epoch: 2025-12-05T14:19Z
TLE epoch observation values (Epoch: 2025-12-05T14:19:21.639Z)
Latitude
-0.00006°
Longitude
178.65415°
Altitude
1,133.306 km
Speed
7.212 km/s
True Right ascension
07h 12m 31s
True Declination
0° 00' 00"
Sunlit
Object was in full shadow at epoch
Visualization orbit readout
Latitude
Unknown
Longitude
Unknown
Altitude
Unknown
Speed
Unknown
Apparent Right ascension
Unknown
Apparent Declination
Unknown
Sunlit
N/A
Visualization observer readout
Local Sidereal Time
02:42:22
Azimuth
Unknown
Elevation
Unknown
Doppler factor
Unknown
Orbital elements
Apogee altitude
1,162.165 km
Perigee altitude
796.044 km
Semi-major axis
7,357.242 km
Eccentricity
0.02488
Inclination
98.814°
RAAN
108.1309°
Arg. of periapsis
215.0803°
True anomaly
145.03351°
Mean anomaly
143.3742°
Eccentric anomaly
144.20796°
Mean motion
3.4393 °/min
Orbital period
104.67 mins
BSTAR
0.00091185
Loading maneuver chart data...
Computing Atmospheric mass density...

Documentation

Showing up to 5 results
|